{"data":{"norad_id":63279,"epoch":"2026-09-20T14:15:54.158976Z","epoch_age_seconds":150655,"freshness":"FRESH","line1":"1 63279U 25053Q   26263.59437684  .00010664  00000+0  39642-3 0  9990","line2":"2 63279  43.0010 217.4211 0000527 312.9985  47.0822 15.27585093 86154","mean_motion":15.27585093,"eccentricity":5.27e-5,"inclination_deg":43.001,"raan_deg":217.4211,"arg_perigee_deg":312.9985,"mean_anomaly_deg":47.0822,"bstar":0.00039642,"rev_number":8615,"period_min":94.26643442638,"perigee_km":482.67226210425,"apogee_km":483.3954295114,"semimajor_km":6861.1708458078,"source":"CELESTRAK","updated_at":"2026-09-21T09:00:34.964923Z"}}